Temperature
21 21 21 21 21 21 21 21 20 20 20 20 20 20 19 19 19 19 19 19 19 19 19 18 18 18 18 18 18 18 18 18 18 18 18 18 18 18 18 18 18 18 18
22 21 21 21 21 21 21 20 20 20 20 20 20 19 19 19 19 19 19 19 19 19 19 18 18 18 18 18 18 18 18 18 18 18 18 18 18 18 18 18 18 18 18
22 21 21 21 21 21 21 20 20 20 20 20 20 19 19 19 19 19 19 19 19 19 19 18 18 18 18 18 18 18 18 18 18 18 18 18 18 18 18 18 18 18 18
22 21 21 21 21 21 20 20 20 20 20 19 19 19 19 19 19 19 19 19 18 18 18 18 18 18 18 18 18 18 18 18 17 17 18 17 18 17 17 17 18 18 18
22 22 21 21 21 20 20 20 20 20 19 19 19 19 19 19 19 19 19 18 18 18 18 18 18 18 18 18 18 18 18 18 18 18 17 17 18 17 17 17 17 17 17
22 22 21 21 21 20 20 20 20 20 19 19 19 19 19 19 18 18 18 18 18 18 18 18 18 18 18 18 18 18 18 18 18 18 17 17 17 17 17 17 17 17 17
22 22 21 21 21 20 20 20 20 19 19 19 19 19 19 18 18 18 18 18 18 18 18 18 18 18 18 18 18 18 18 18 18 18 17 17 17 17 17 17 17 17 17
22 22 21 21 20 20 20 20 20 19 19 19 19 19 18 18 18 18 18 18 18 18 18 18 18 18 18 18 17 17 17 18 18 17 17 17 17 17 17 17 17 17 17
22 21 21 21 20 20 20 20 19 19 19 19 19 18 18 18 18 18 18 18 18 18 18 18 18 18 18 17 17 17 17 17 17 17 17 17 17 17 17 17 17 17 17
22 21 21 20 20 20 20 19 19 19 19 19 18 18 18 18 18 18 18 18 18 18 18 18 18 18 17 17 17 17 17 17 17 17 17 17 17 17 17 17 17 17 17
21 21 21 20 20 20 19 19 19 19 19 18 18 18 18 18 18 17 17 17 17 17 17 17 17 17 17 17 17 17 17 17 17 17 17 17 17 17 17 17 17 17 17
21 21 20 20 20 20 19 19 19 19 18 18 18 18 18 18 18 17 17 17 17 17 17 17 17 17 17 17 17 17 17 17 17 17 17 17 17 17 17 17 17 17 17
21 21 20 20 20 20 19 19 19 19 18 18 18 18 18 18 17 17 17 17 17 17 17 17 17 17 17 17 17 17 17 17 17 17 17 17 17 17 17 16 16 17 17
21 21 20 20 20 19 19 19 19 19 18 18 18 18 18 18 18 17 17 17 17 17 17 17 17 17 17 17 17 17 17 17 17 17 16 16 16 16 16 16 16 16 16
21 21 20 20 20 19 19 19 19 19 18 18 18 18 18 18 18 17 17 17 17 17 17 17 17 16 17 17 17 17 17 17 17 16 16 16 16 16 16 16 16 16 16
21 21 20 20 20 20 19 19 19 19 18 18 18 18 18 18 18 17 17 17 17 17 17 17 17 16 16 16 16 16 16 16 16 16 16 16 16 16 16 16 16 16 16
21 21 21 20 20 20 19 19 19 19 18 18 18 18 17 17 17 17 17 17 17 17 16 16 16 16 16 16 16 16 16 16 16 16 16 16 16 16 16 16 16 16 16
21 21 21 20 20 20 19 19 19 18 18 18 18 18 17 17 17 17 17 17 17 17 16 16 16 16 16 16 16 16 16 16 16 16 16 16 16 16 16 16 16 16 16
21 21 20 20 20 19 19 19 19 18 18 18 18 17 17 17 17 17 17 17 17 16 16 16 16 16 16 16 16 16 16 16 16 16 16 16 16 16 16 16 16 16 16
21 21 20 20 19 19 19 19 18 18 18 18 17 17 17 17 17 17 17 16 16 16 16 16 16 16 16 16 16 16 16 16 16 16 16 16 16 16 16 16 15 15 15
21 20 20 20 19 19 18 18 18 18 17 17 17 17 17 17 17 17 16 16 16 16 16 16 16 16 16 16 16 16 16 16 16 16 16 16 16 15 15 15 15 15 15
20 20 20 20 19 19 18 18 18 17 17 17 17 17 17 17 16 16 16 16 16 16 16 16 16 16 16 15 15 15 15 15 16 16 16 15 15 15 15 15 15 15 15
20 20 19 19 19 19 18 18 17 17 17 17 17 16 16 16 16 16 16 16 16 16 16 16 16 16 15 15 15 15 15 15 15 15 15 15 15 15 15 15 15 15 15
20 20 19 19 19 18 18 17 17 17 17 17 16 16 16 16 16 16 16 15 16 16 16 16 15 15 15 15 15 15 15 15 15 15 15 15 15 15 15 15 15 15 15
20 19 19 19 18 18 17 17 17 17 17 17 16 16 16 16 16 15 15 15 15 15 15 15 15 15 15 15 15 15 15 15 15 15 14 15 15 15 15 15 15 15 15
19 19 18 18 18 18 17 17 17 17 17 16 16 16 16 16 16 15 15 15 15 15 15 15 15 15 15 15 15 15 15 15 15 14 14 15 15 15 15 15 15 15 15
Wind_Speed
7 9 15 15 16 16 15 15 15 15 15 15 16 16 16 16 16 15 15 14 13 13 13 13 13 13 12 12 12 12 12 12 12 13 14 14 14 14 15 14 13 12 14
12 13 16 16 16 16 16 15 15 15 14 15 15 15 15 15 15 14 14 13 13 13 13 13 12 12 11 11 11 11 11 11 11 12 13 13 14 14 14 14 13 11 13
14 14 16 16 17 16 16 15 15 14 14 14 14 15 15 15 14 14 13 12 12 12 12 12 11 10 10 10 10 10 11 11 11 12 12 11 12 14 15 15 15 13 13
15 14 16 17 16 16 16 15 14 14 14 14 14 14 14 14 14 13 13 13 12 12 11 11 10 9 9 9 9 9 10 9 10 10 9 9 10 14 15 15 15 14 13
13 14 17 18 16 16 16 15 14 13 13 13 13 13 13 13 13 13 13 12 12 11 10 9 8 8 8 7 7 8 8 9 9 9 9 9 10 14 15 15 14 14 14
12 13 17 19 17 16 16 15 14 13 13 13 13 12 12 12 12 12 11 11 11 10 10 9 8 7 6 5 6 7 8 9 9 8 8 9 10 13 15 15 14 14 14
13 12 16 19 18 17 16 15 14 13 13 13 12 12 11 11 11 11 10 10 9 9 8 7 7 6 5 5 6 7 7 8 8 7 8 9 11 14 14 14 14 14 14
15 12 15 18 18 16 16 15 15 14 13 12 12 11 11 11 10 10 10 9 8 8 7 6 5 5 5 5 6 6 7 8 8 7 7 8 12 14 14 14 14 13 13
13 12 10 14 16 16 15 14 14 13 12 12 11 10 10 10 9 9 9 9 8 7 6 5 4 4 4 4 4 5 6 8 7 6 8 8 11 13 14 14 13 13 13
11 10 9 10 12 12 13 14 13 12 11 11 10 10 10 9 9 9 8 8 8 6 5 5 5 3 2 2 3 3 5 7 6 6 6 9 12 13 14 14 13 13 12
10 8 8 9 9 10 11 12 12 12 11 10 9 9 9 7 7 7 8 9 8 7 6 6 5 3 1 1 1 2 3 4 6 6 7 10 12 13 13 13 13 13 12
11 10 9 9 9 9 9 9 9 9 8 8 6 7 7 6 6 6 8 9 7 6 5 5 4 2 1 0 1 2 3 5 5 6 8 12 13 13 12 12 12 12 11
12 11 10 10 9 8 6 7 6 6 6 6 7 6 6 5 5 5 4 5 5 5 3 3 2 2 1 2 2 2 4 5 5 6 8 12 13 13 12 11 11 10 11
12 11 10 10 9 8 7 6 6 4 4 4 6 7 6 3 3 3 3 3 3 3 3 2 2 2 2 3 3 3 4 5 6 7 8 11 12 13 12 11 11 9 9
12 11 11 10 10 8 7 5 6 5 5 5 6 7 7 4 4 4 3 3 3 4 3 2 2 1 2 2 3 4 4 6 7 7 8 10 12 13 12 12 11 10 8
11 11 10 10 10 9 7 6 6 6 6 6 6 7 8 6 5 4 3 3 3 4 4 3 2 2 2 2 2 3 4 6 7 8 7 9 11 12 12 11 11 10 9
12 10 10 11 10 9 8 7 6 6 6 5 5 7 7 7 6 5 4 3 4 5 4 3 2 2 2 2 1 2 3 5 6 7 7 7 8 10 11 11 11 10 10
12 11 10 11 10 9 8 7 6 6 6 5 6 6 7 7 6 5 4 3 3 4 3 3 2 2 1 1 1 1 2 3 5 7 7 8 8 9 11 12 11 11 10
12 11 10 9 10 9 7 6 6 6 5 5 5 5 6 6 6 5 3 3 3 3 2 3 2 2 2 1 2 2 2 2 4 5 6 8 9 9 10 11 12 12 11
11 11 10 9 8 8 6 4 4 4 3 4 4 5 5 5 6 5 3 3 3 3 2 2 2 2 2 1 1 1 1 2 2 3 5 6 8 10 10 10 10 10 12
9 9 10 9 8 8 6 5 5 4 3 3 3 5 5 5 5 5 3 3 3 3 3 3 3 2 1 1 2 2 3 2 1 2 3 3 5 7 9 9 9 9 9
9 9 8 9 9 8 7 6 5 4 3 3 2 3 5 5 5 5 4 4 3 3 3 3 3 2 1 2 2 2 2 3 3 2 2 2 3 3 4 8 9 9 9
8 8 8 8 8 8 7 5 4 3 2 1 2 2 3 5 5 5 5 4 4 4 4 3 3 3 2 1 2 3 3 3 2 3 2 2 2 2 2 3 6 8 9
8 7 6 6 7 7 7 7 7 6 5 4 4 3 3 3 4 5 5 5 4 3 4 3 3 3 3 2 1 1 2 4 3 2 3 2 1 2 3 3 4 6 8
8 7 7 6 6 6 6 7 7 5 4 3 3 3 3 2 3 4 4 4 4 3 4 3 3 3 3 3 3 2 1 1 2 2 2 3 2 2 2 3 3 4 7
7 7 7 7 5 6 6 6 6 7 6 5 4 4 3 2 2 3 4 4 4 3 4 4 4 4 3 3 3 2 3 2 2 3 3 3 3 3 2 3 3 4 6
Wind_Direction
152 156 141 131 125 119 115 110 107 105 104 104 105 106 108 110 111 112 112 112 118 123 124 126 126 124 122 121 122 124 125 126 131 135 136 136 138 140 137 133 131 126 127
151 152 142 135 130 125 120 115 112 109 109 108 108 109 111 113 113 113 113 113 116 122 124 126 125 125 125 124 123 125 128 131 136 139 139 139 140 140 137 133 130 130 132
146 149 144 138 133 129 125 120 117 114 113 112 110 111 113 114 114 113 113 112 111 118 121 124 125 124 124 123 123 125 128 130 135 139 137 133 138 138 137 134 133 134 135
146 147 144 140 135 132 129 126 123 120 119 117 115 115 116 116 115 113 111 110 107 109 115 120 123 122 122 122 123 126 129 132 136 138 134 135 139 142 139 137 138 139 137
144 146 146 143 139 136 135 133 129 127 125 124 122 120 119 118 117 115 113 110 108 108 111 114 115 117 122 124 126 130 132 135 137 136 132 136 140 149 145 144 145 143 140
147 148 148 146 143 140 139 138 135 134 133 132 129 126 124 123 121 120 117 114 112 112 115 117 118 112 114 123 126 129 129 134 134 130 135 140 144 151 151 151 150 147 144
148 151 151 149 146 143 141 141 141 140 138 137 136 134 132 129 126 126 123 120 121 121 121 123 126 122 118 127 133 132 132 139 135 131 141 144 150 154 154 153 151 148 144
150 151 151 151 149 148 147 146 147 146 144 142 142 140 137 134 131 130 130 130 129 129 128 129 134 137 134 134 143 141 139 141 137 134 141 148 155 156 155 151 148 146 143
147 146 147 151 152 152 152 152 152 152 151 148 147 147 145 142 140 141 138 137 140 138 135 130 134 139 135 135 141 147 147 148 142 142 151 155 159 158 155 152 150 148 149
144 147 149 148 151 153 154 155 156 155 153 150 150 152 152 152 152 154 152 150 153 152 150 144 139 140 130 137 141 141 153 155 150 153 158 160 161 160 158 158 158 156 157
148 153 154 152 152 154 156 162 159 157 155 153 156 157 154 150 156 162 163 161 163 161 158 156 155 156 151 163 149 133 125 140 150 157 164 167 167 164 162 162 164 164 164
160 165 165 162 159 158 160 157 158 161 158 157 160 159 156 156 164 161 165 166 166 169 173 174 174 179 158 110 151 131 125 138 148 158 168 170 167 164 162 162 166 169 172
165 165 167 164 162 161 154 154 161 162 158 163 167 165 159 156 158 153 154 163 171 180 185 194 195 187 167 169 162 142 136 141 146 155 164 168 168 168 166 166 169 174 176
159 166 165 163 160 161 155 158 160 159 162 167 169 164 158 151 150 157 167 170 176 184 183 192 193 194 192 178 158 142 136 144 145 153 166 171 172 172 171 172 174 179 181
161 167 168 162 161 160 153 162 160 168 170 168 162 167 160 161 172 172 179 184 188 182 183 179 179 160 146 138 144 145 144 149 151 152 163 176 178 179 177 178 178 181 185
165 169 167 164 162 157 162 169 167 168 164 159 160 167 168 165 169 176 181 187 187 175 175 173 164 153 152 142 135 137 150 158 157 159 166 178 183 182 181 183 184 184 187
168 164 163 164 163 161 165 169 164 165 158 160 163 164 167 165 165 170 172 183 191 177 163 150 142 145 140 133 151 157 158 165 168 172 177 180 186 190 190 191 191 191 192
163 159 160 163 162 164 166 164 161 162 159 162 161 160 163 165 165 160 168 183 181 163 150 146 138 133 130 140 181 195 176 171 182 187 188 192 193 194 198 200 198 198 201
162 157 156 155 161 163 159 156 155 156 160 162 159 161 168 170 168 158 168 174 158 145 152 157 135 141 150 180 202 196 191 194 197 196 196 201 201 198 197 202 203 205 207
158 157 155 154 159 154 148 137 137 145 157 160 166 169 168 174 171 158 159 162 152 146 154 148 145 147 161 178 195 205 246 232 203 203 208 204 204 205 203 203 202 209 214
149 154 160 160 160 154 157 159 158 168 167 167 174 164 161 164 165 159 158 159 156 159 173 170 151 146 157 114 83 16 344 334 258 237 224 207 207 207 203 202 202 205 213
155 158 164 166 165 166 171 173 169 160 162 167 164 153 159 162 166 169 157 163 161 157 158 158 147 146 164 127 126 101 359 341 327 284 257 222 218 203 198 204 200 202 206
164 165 166 169 168 170 166 148 133 110 99 118 158 172 177 174 170 165 169 160 160 161 173 179 165 159 176 192 142 146 156 223 290 312 287 247 222 212 219 204 204 206 208
169 162 156 159 162 165 160 158 156 163 170 186 180 179 178 174 170 174 170 167 168 169 176 191 178 170 162 188 218 190 179 167 176 279 315 301 265 233 231 227 210 204 207
157 156 155 147 153 152 157 169 164 161 168 157 149 158 170 182 180 177 175 174 174 180 184 189 178 176 173 182 187 183 176 155 159 174 260 296 307 271 245 233 215 207 208
147 156 158 150 151 152 157 168 167 159 154 149 158 171 178 180 194 193 182 181 184 188 193 197 193 189 189 187 190 182 173 170 186 182 212 246 264 274 254 234 223 217 211
Height
1510 1511 1512 1512 1512 1513 1513 1514 1515 1515 1516 1517 1518 1518 1519 1520 1521 1521 1521 1522 1523 1523 1524 1525 1526 1527 1528 1528 1529 1531 1531 1532 1533 1534 1535 1536 1537 1538 1540 1541 1542 1544 1545
1509 1510 1512 1512 1512 1513 1514 1514 1515 1516 1517 1518 1518 1519 1520 1521 1521 1522 1522 1523 1523 1524 1524 1525 1526 1527 1528 1529 1530 1531 1531 1532 1533 1534 1535 1536 1537 1539 1540 1542 1543 1544 1545
1509 1510 1511 1512 1513 1513 1514 1515 1515 1516 1517 1518 1519 1520 1521 1521 1522 1522 1523 1523 1524 1524 1525 1526 1527 1528 1529 1530 1530 1531 1532 1532 1533 1534 1535 1536 1538 1539 1541 1542 1543 1545 1546
1509 1510 1511 1512 1513 1514 1514 1515 1516 1517 1518 1519 1520 1521 1522 1522 1523 1523 1524 1524 1525 1525 1526 1527 1527 1528 1529 1530 1531 1531 1532 1533 1533 1534 1535 1537 1538 1540 1541 1543 1544 1545 1546
1509 1510 1511 1512 1514 1514 1515 1516 1517 1518 1519 1520 1520 1521 1522 1523 1523 1524 1524 1525 1525 1526 1527 1527 1528 1528 1529 1530 1531 1531 1532 1533 1533 1534 1536 1537 1539 1540 1542 1543 1544 1545 1546
1509 1510 1511 1512 1514 1515 1515 1516 1517 1518 1519 1520 1521 1522 1523 1523 1524 1524 1525 1526 1526 1526 1527 1527 1528 1529 1529 1530 1531 1531 1532 1533 1533 1534 1536 1537 1539 1540 1542 1543 1544 1545 1546
1508 1510 1511 1512 1514 1515 1516 1517 1518 1519 1519 1520 1521 1522 1523 1524 1524 1525 1525 1526 1526 1527 1527 1528 1528 1529 1530 1529 1530 1531 1532 1533 1533 1534 1536 1538 1539 1541 1542 1543 1544 1545 1546
1508 1510 1511 1513 1514 1515 1516 1517 1518 1519 1520 1521 1522 1523 1523 1524 1525 1526 1526 1526 1527 1527 1527 1528 1529 1529 1530 1529 1531 1532 1532 1533 1534 1534 1536 1538 1539 1541 1542 1543 1544 1545 1546
1509 1510 1511 1513 1514 1515 1516 1517 1518 1519 1520 1521 1522 1523 1524 1524 1525 1526 1526 1527 1527 1527 1528 1528 1529 1529 1530 1530 1531 1532 1532 1533 1534 1535 1536 1537 1539 1541 1542 1543 1544 1545 1546
1509 1510 1511 1513 1514 1515 1516 1517 1518 1519 1520 1521 1522 1523 1524 1524 1525 1526 1526 1526 1527 1527 1528 1529 1529 1529 1530 1530 1530 1531 1531 1532 1533 1535 1536 1537 1539 1540 1542 1543 1544 1545 1546
1508 1510 1511 1512 1513 1515 1516 1517 1518 1519 1520 1521 1522 1523 1524 1524 1525 1525 1526 1526 1527 1527 1528 1528 1529 1529 1530 1530 1530 1531 1530 1531 1533 1534 1536 1537 1539 1540 1542 1543 1544 1544 1546
1507 1509 1510 1511 1513 1514 1515 1517 1518 1519 1520 1521 1522 1523 1523 1524 1525 1525 1526 1526 1527 1527 1528 1528 1529 1529 1530 1530 1530 1530 1530 1531 1533 1534 1535 1537 1538 1540 1541 1542 1543 1544 1545
1505 1507 1509 1510 1512 1513 1515 1516 1517 1518 1519 1520 1521 1522 1523 1524 1524 1525 1525 1526 1526 1527 1528 1528 1529 1529 1530 1530 1530 1531 1531 1532 1533 1534 1536 1537 1538 1539 1541 1541 1542 1543 1544
1504 1506 1508 1509 1511 1512 1514 1515 1516 1518 1519 1520 1520 1521 1522 1523 1523 1524 1525 1526 1526 1527 1527 1528 1528 1529 1530 1530 1530 1531 1531 1532 1533 1534 1536 1537 1538 1539 1540 1540 1541 1542 1543
1502 1504 1506 1507 1509 1511 1512 1514 1515 1517 1518 1519 1520 1521 1522 1522 1523 1524 1525 1525 1525 1526 1527 1527 1528 1529 1529 1530 1530 1531 1531 1532 1533 1535 1536 1537 1538 1538 1539 1540 1540 1541 1542
1501 1502 1504 1506 1507 1509 1511 1513 1514 1516 1517 1518 1519 1520 1521 1521 1522 1523 1524 1524 1525 1525 1526 1527 1528 1529 1529 1530 1530 1531 1531 1532 1533 1534 1535 1536 1537 1538 1539 1539 1540 1540 1541
1498 1500 1502 1504 1506 1508 1510 1511 1513 1514 1516 1517 1518 1519 1520 1520 1521 1522 1523 1523 1524 1525 1526 1526 1527 1528 1529 1529 1530 1531 1531 1532 1533 1534 1535 1536 1536 1537 1538 1538 1539 1539 1540
1496 1498 1500 1502 1505 1507 1508 1510 1511 1513 1514 1515 1516 1517 1518 1519 1520 1521 1522 1523 1523 1524 1525 1526 1526 1527 1528 1528 1529 1530 1531 1531 1532 1533 1534 1534 1535 1536 1537 1537 1538 1538 1539
1493 1496 1498 1501 1503 1505 1507 1508 1510 1511 1513 1514 1515 1516 1517 1518 1518 1519 1520 1521 1522 1523 1524 1525 1525 1526 1527 1527 1528 1529 1530 1530 1531 1532 1532 1533 1534 1534 1535 1536 1536 1537 1537
1492 1495 1497 1499 1501 1504 1506 1507 1509 1510 1511 1512 1513 1514 1515 1516 1517 1517 1518 1520 1521 1522 1522 1523 1524 1525 1526 1526 1527 1527 1528 1529 1529 1530 1531 1531 1532 1533 1533 1533 1534 1535 1535
1491 1493 1495 1497 1500 1502 1504 1506 1507 1508 1509 1511 1512 1512 1513 1514 1515 1515 1516 1518 1519 1520 1521 1522 1523 1523 1524 1525 1526 1526 1527 1528 1528 1529 1529 1530 1530 1531 1531 1531 1532 1533 1533
1490 1492 1494 1496 1498 1500 1502 1504 1505 1506 1507 1509 1510 1511 1512 1512 1513 1514 1515 1516 1517 1518 1520 1520 1521 1522 1523 1524 1525 1525 1525 1527 1526 1527 1527 1528 1528 1528 1528 1529 1530 1530 1531
1489 1491 1493 1495 1497 1498 1500 1502 1504 1505 1506 1507 1508 1509 1510 1511 1512 1512 1513 1514 1515 1516 1517 1519 1520 1520 1521 1523 1523 1524 1524 1524 1525 1525 1525 1525 1526 1526 1526 1527 1527 1528 1528
1486 1489 1491 1493 1495 1497 1499 1500 1501 1502 1503 1505 1506 1507 1508 1509 1510 1511 1512 1513 1514 1515 1516 1517 1518 1519 1520 1520 1521 1522 1523 1523 1523 1523 1523 1523 1523 1523 1524 1524 1525 1525 1526
1484 1486 1489 1491 1493 1495 1496 1498 1499 1500 1501 1503 1505 1506 1507 1508 1509 1509 1510 1511 1512 1513 1514 1516 1516 1517 1518 1518 1519 1519 1520 1521 1521 1521 1520 1521 1521 1521 1521 1522 1522 1523 1523
1482 1484 1487 1488 1490 1492 1494 1496 1497 1498 1500 1501 1503 1504 1505 1506 1507 1508 1509 1510 1511 1512 1513 1514 1514 1515 1516 1516 1517 1517 1518 1518 1519 1519 1519 1519 1518 1519 1519 1519 1520 1520 1521